Вернуться в каталог

FENGYUN 1C DEB

АктивенPO
NORAD 31385·DEBRIS·🇨🇳 China

Запущен May 10, 1999 с Taiyuan Satellite Launch Center

Loading…

Ближайшие Пролёты (ближайшие 24 часа)

TLE

УстаревающийSource: Space-Track

Эпоха: Sep 11, 2026, 03:14 UTC

1 31385U 99025BSR 26254.13488750  .00000192  00000-0  64899-4 0  9992
2 31385  98.9589   3.5562 0132523 325.0754 155.8524 14.44321603 25479

Отслеживайте FENGYUN 1C DEB в реальном времени с AllMySat

Download on the App Store